| time (UTC) | temp F | wind direction | speed MPH | gust MPH | rain 1hr in | rain 24hr in | rain mn in | humidity % | barometer mb |
| 20260904205837 | 99 | 355 | 2.0 | 9.0 | 0.00 | 0.00 | 0.00 | 48 | 1016.7 |
| 20260904205337 | 100 | 74 | 3.0 | 9.0 | 0.00 | 0.00 | 0.00 | 46 | 1016.9 |
| 20260904204836 | 101 | 51 | 2.0 | 5.0 | 0.00 | 0.00 | 0.00 | 45 | 1016.9 |
| 20260904204336 | 101 | 40 | 3.0 | 7.0 | 0.00 | 0.00 | 0.00 | 43 | 1016.9 |
| 20260904203832 | 101 | 104 | 3.0 | 7.0 | 0.00 | 0.00 | 0.00 | 44 | 1017.0 |
| 20260904203409 | 102 | 55 | 3.0 | 7.0 | 0.00 | 0.00 | 0.00 | 44 | 1017.1 |
| 20260904202846 | 102 | 115 | 3.0 | 9.0 | 0.00 | 0.00 | 0.00 | 43 | 1017.1 |
| 20260904202346 | 102 | 132 | 5.0 | 11.0 | 0.00 | 0.00 | 0.00 | 44 | 1017.3 |
| 20260904201844 | 102 | 132 | 5.0 | 11.0 | 0.00 | 0.00 | 0.00 | 44 | 1017.4 |
| 20260904201343 | 102 | 119 | 4.0 | 9.0 | 0.00 | 0.00 | 0.00 | 44 | 1017.4 |
| 20260904200841 | 101 | 70 | 2.0 | 8.0 | 0.00 | 0.00 | 0.00 | 44 | 1017.4 |
| 20260904200336 | 101 | 134 | 3.0 | 8.0 | 0.00 | 0.00 | 0.00 | 45 | 1017.4 |
| 20260904195834 | 101 | 108 | 3.0 | 8.0 | 0.00 | 0.00 | 0.00 | 45 | 1017.5 |
| 20260904195330 | 101 | 109 | 3.0 | 8.0 | 0.00 | 0.00 | 0.00 | 46 | 1017.5 |
| 20260904194832 | 101 | 209 | 2.0 | 5.0 | 0.00 | 0.00 | 0.00 | 46 | 1017.6 |
| 20260904194332 | 100 | 175 | 2.0 | 11.0 | 0.00 | 0.00 | 0.00 | 46 | 1017.8 |
| 20260904193909 | 100 | 152 | 4.0 | 11.0 | 0.00 | 0.00 | 0.00 | 47 | 1017.8 |
| 20260904193344 | 99 | 90 | 4.0 | 8.0 | 0.00 | 0.00 | 0.00 | 48 | 1017.8 |
| 20260904192841 | 99 | 164 | 2.0 | 8.0 | 0.00 | 0.00 | 0.00 | 48 | 1018.1 |
| 20260904192400 | 100 | 87 | 2.0 | 9.0 | 0.00 | 0.00 | 0.00 | 49 | 1018.2 |
| 20260904191833 | 99 | 130 | 4.0 | 8.0 | 0.00 | 0.00 | 0.00 | 49 | 1018.2 |
| 20260904191333 | 99 | 177 | 4.0 | 8.0 | 0.00 | 0.00 | 0.00 | 49 | 1018.3 |
| 20260904190833 | 99 | 333 | 1.0 | 10.0 | 0.00 | 0.00 | 0.00 | 49 | 1018.5 |
| 20260904190349 | 99 | 109 | 5.0 | 10.0 | 0.00 | 0.00 | 0.00 | 49 | 1018.5 |
| 20260904185846 | 98 | 67 | 2.0 | 10.0 | 0.00 | 0.00 | 0.00 | 49 | 1018.4 |
| 20260904185346 | 98 | 46 | 4.0 | 12.0 | 0.00 | 0.00 | 0.00 | 49 | 1018.6 |
| 20260904184842 | 98 | 92 | 5.0 | 10.0 | 0.00 | 0.00 | 0.00 | 49 | 1018.6 |
| 20260904184341 | 98 | 15 | 4.0 | 10.0 | 0.00 | 0.00 | 0.00 | 49 | 1018.8 |
| 20260904183840 | 99 | 60 | 4.0 | 9.0 | 0.00 | 0.00 | 0.00 | 49 | 1018.8 |
| 20260904183337 | 98 | 82 | 4.0 | 9.0 | 0.00 | 0.00 | 0.00 | 50 | 1018.8 |
| 20260904182834 | 98 | 138 | 3.0 | 9.0 | 0.00 | 0.00 | 0.00 | 51 | 1018.8 |
| 20260904182338 | 98 | 161 | 3.0 | 8.0 | 0.00 | 0.00 | 0.00 | 51 | 1019.0 |
| 20260904181834 | 98 | 74 | 2.0 | 9.0 | 0.00 | 0.00 | 0.00 | 50 | 1019.1 |
| 20260904181332 | 98 | 78 | 4.0 | 9.0 | 0.00 | 0.00 | 0.00 | 51 | 1019.0 |
| 20260904180850 | 98 | 82 | 5.0 | 10.0 | 0.00 | 0.00 | 0.00 | 53 | 1019.1 |
| 20260904180347 | 98 | 118 | 4.0 | 10.0 | 0.00 | 0.00 | 0.00 | 54 | 1019.2 |
| 20260904175846 | 97 | 183 | 3.0 | 9.0 | 0.00 | 0.00 | 0.00 | 54 | 1019.3 |
| 20260904175406 | 98 | 22 | 3.0 | 9.0 | 0.00 | 0.00 | 0.00 | 53 | 1019.3 |
| 20260904174843 | 98 | 119 | 6.0 | 9.0 | 0.00 | 0.00 | 0.00 | 52 | 1019.3 |
| 20260904174343 | 98 | 85 | 5.0 | 8.0 | 0.00 | 0.00 | 0.00 | 54 | 1019.3 |
| 20260904173840 | 97 | 140 | 4.0 | 9.0 | 0.00 | 0.00 | 0.00 | 54 | 1019.4 |
| 20260904173336 | 97 | 142 | 6.0 | 9.0 | 0.00 | 0.00 | 0.00 | 54 | 1019.4 |
| 20260904172835 | 97 | 142 | 5.0 | 10.0 | 0.00 | 0.00 | 0.00 | 56 | 1019.5 |
| 20260904172334 | 96 | 86 | 5.0 | 10.0 | 0.00 | 0.00 | 0.00 | 56 | 1019.5 |
| 20260904171832 | 97 | 188 | 3.0 | 10.0 | 0.00 | 0.00 | 0.00 | 56 | 1019.6 |
| 20260904171332 | 97 | 161 | 4.0 | 10.0 | 0.00 | 0.00 | 0.00 | 57 | 1019.7 |
| 20260904170849 | 97 | 92 | 3.0 | 7.0 | 0.00 | 0.00 | 0.00 | 57 | 1019.7 |
| 20260904170349 | 96 | 117 | 4.0 | 7.0 | 0.00 | 0.00 | 0.00 | 59 | 1019.7 |
| 20260904165845 | 95 | 121 | 2.0 | 3.0 | 0.00 | 0.00 | 0.00 | 60 | 1019.8 |
| 20260904165346 | 95 | 182 | 1.0 | 4.0 | 0.00 | 0.00 | 0.00 | 60 | 1019.9 |
| 20260904164842 | 95 | 96 | 2.0 | 4.0 | 0.00 | 0.00 | 0.00 | 61 | 1020.0 |
| 20260904164403 | 95 | 204 | 1.0 | 4.0 | 0.00 | 0.00 | 0.00 | 60 | 1020.1 |
| 20260904163838 | 95 | 188 | 1.0 | 4.0 | 0.00 | 0.00 | 0.00 | 60 | 1020.1 |
| 20260904163332 | 94 | 188 | 1.0 | 4.0 | 0.00 | 0.00 | 0.00 | 62 | 1020.1 |
| 20260904162830 | 94 | 311 | 1.0 | 4.0 | 0.00 | 0.00 | 0.00 | 64 | 1020.1 |
| 20260904162349 | 94 | 161 | 1.0 | 5.0 | 0.00 | 0.00 | 0.00 | 62 | 1020.1 |
| 20260904161848 | 93 | 151 | 0.0 | 3.0 | 0.00 | 0.00 | 0.00 | 65 | 1020.2 |
| 20260904161347 | 93 | 355 | 0.0 | 4.0 | 0.00 | 0.00 | 0.00 | 65 | 1020.2 |
| 20260904160906 | 93 | 40 | 1.0 | 4.0 | 0.00 | 0.00 | 0.00 | 63 | 1020.2 |
| 20260904160341 | 92 | 187 | 2.0 | 4.0 | 0.00 | 0.00 | 0.00 | 65 | 1020.2 |
| 20260904155838 | 92 | 199 | 2.0 | 5.0 | 0.00 | 0.00 | 0.00 | 66 | 1020.2 |
| 20260904155339 | 92 | 136 | 2.0 | 5.0 | 0.00 | 0.00 | 0.00 | 67 | 1020.4 |
| 20260904154835 | 92 | 265 | 1.0 | 5.0 | 0.00 | 0.00 | 0.00 | 66 | 1020.4 |
| 20260904154339 | 92 | 160 | 1.0 | 3.0 | 0.00 | 0.00 | 0.00 | 66 | 1020.5 |
| 20260904153837 | 92 | 158 | 2.0 | 3.0 | 0.00 | 0.00 | 0.00 | 65 | 1020.4 |
| 20260904153333 | 92 | 173 | 1.0 | 3.0 | 0.00 | 0.00 | 0.00 | 65 | 1020.4 |
| 20260904152849 | 92 | 154 | 2.0 | 3.0 | 0.00 | 0.00 | 0.00 | 66 | 1020.4 |
| 20260904152349 | 92 | 98 | 1.0 | 5.0 | 0.00 | 0.00 | 0.00 | 65 | 1020.4 |
| 20260904151844 | 92 | 97 | 3.0 | 6.0 | 0.00 | 0.00 | 0.00 | 68 | 1020.5 |
| 20260904151344 | 92 | 107 | 2.0 | 6.0 | 0.00 | 0.00 | 0.00 | 68 | 1020.5 |
| 20260904150843 | 91 | 157 | 2.0 | 6.0 | 0.00 | 0.00 | 0.00 | 69 | 1020.5 |
| 20260904150339 | 91 | 98 | 2.0 | 6.0 | 0.00 | 0.00 | 0.00 | 69 | 1020.5 |
| 20260904145836 | 91 | 93 | 1.0 | 3.0 | 0.00 | 0.00 | 0.00 | 69 | 1020.4 |
| 20260904145353 | 90 | 93 | 1.0 | 3.0 | 0.00 | 0.00 | 0.00 | 69 | 1020.2 |
| 20260904144849 | 90 | 92 | 1.0 | 4.0 | 0.00 | 0.00 | 0.00 | 69 | 1020.4 |
| 20260904144348 | 90 | 92 | 3.0 | 5.0 | 0.00 | 0.00 | 0.00 | 70 | 1020.4 |
| 20260904143845 | 90 | 72 | 3.0 | 6.0 | 0.00 | 0.00 | 0.00 | 70 | 1020.4 |
| 20260904143342 | 89 | 49 | 2.0 | 4.0 | 0.00 | 0.00 | 0.00 | 71 | 1020.4 |
| 20260904142839 | 89 | 96 | 1.0 | 3.0 | 0.00 | 0.00 | 0.00 | 72 | 1020.3 |
| 20260904142342 | 88 | 96 | 1.0 | 3.0 | 0.00 | 0.00 | 0.00 | 72 | 1020.3 |
| 20260904141839 | 88 | 97 | 1.0 | 5.0 | 0.00 | 0.00 | 0.00 | 73 | 1020.1 |
| 20260904141338 | 88 | 136 | 2.0 | 5.0 | 0.00 | 0.00 | 0.00 | 74 | 1020.2 |
| 20260904140836 | 88 | 156 | 1.0 | 4.0 | 0.00 | 0.00 | 0.00 | 74 | 1020.2 |
| 20260904140331 | 88 | 120 | 2.0 | 4.0 | 0.00 | 0.00 | 0.00 | 74 | 1020.2 |
| 20260904135849 | 88 | 112 | 2.0 | 4.0 | 0.00 | 0.00 | 0.00 | 74 | 1020.1 |
| 20260904135408 | 88 | 145 | 2.0 | 4.0 | 0.00 | 0.00 | 0.00 | 75 | 1020.1 |
| 20260904134843 | 88 | 82 | 2.0 | 4.0 | 0.00 | 0.00 | 0.00 | 75 | 1020.1 |
| 20260904134342 | 87 | 144 | 1.0 | 3.0 | 0.00 | 0.00 | 0.00 | 75 | 1019.9 |
| 20260904133840 | 87 | 129 | 2.0 | 4.0 | 0.00 | 0.00 | 0.00 | 75 | 1020.1 |
| 20260904133357 | 87 | 126 | 2.0 | 4.0 | 0.00 | 0.00 | 0.00 | 75 | 1020.0 |
| 20260904132852 | 86 | 114 | 2.0 | 3.0 | 0.00 | 0.00 | 0.00 | 76 | 1020.1 |
| 20260904132330 | 86 | 129 | 2.0 | 3.0 | 0.00 | 0.00 | 0.00 | 77 | 1020.2 |
| 20260904131847 | 85 | 129 | 1.0 | 2.0 | 0.00 | 0.00 | 0.00 | 79 | 1020.3 |
| 20260904131344 | 85 | 129 | 1.0 | 2.0 | 0.00 | 0.00 | 0.00 | 79 | 1020.3 |
| 20260904130841 | 84 | 85 | 0.0 | 0.0 | 0.00 | 0.00 | 0.00 | 80 | 1020.3 |
| 20260904130336 | 83 | 85 | 0.0 | 0.0 | 0.00 | 0.00 | 0.00 | 82 | 1020.2 |
| 20260904125833 | 82 | 85 | 0.0 | 0.0 | 0.00 | 0.00 | 0.00 | 84 | 1020.1 |
| 20260904125336 | 82 | 85 | 0.0 | 0.0 | 0.00 | 0.00 | 0.00 | 85 | 1020.2 |
| 20260904124832 | 81 | 85 | 0.0 | 0.0 | 0.00 | 0.00 | 0.00 | 85 | 1020.2 |
| 20260904124332 | 81 | 85 | 0.0 | 0.0 | 0.00 | 0.00 | 0.00 | 85 | 1020.1 |
| 20260904123848 | 81 | 85 | 0.0 | 0.0 | 0.00 | 0.00 | 0.00 | 86 | 1020.1 |
| 20260904123403 | 80 | 85 | 0.0 | 0.0 | 0.00 | 0.00 | 0.00 | 85 | 1020.2 |
| 20260904122839 | 80 | 86 | 0.0 | 0.0 | 0.00 | 0.00 | 0.00 | 86 | 1020.1 |
| 20260904122338 | 79 | 86 | 0.0 | 0.0 | 0.00 | 0.00 | 0.00 | 87 | 1020.1 |
| 20260904121834 | 78 | 86 | 0.0 | 0.0 | 0.00 | 0.00 | 0.00 | 89 | 1019.9 |
| 20260904121354 | 78 | 86 | 0.0 | 0.0 | 0.00 | 0.00 | 0.00 | 90 | 1019.9 |
| 20260904120847 | 77 | 86 | 0.0 | 0.0 | 0.00 | 0.00 | 0.00 | 91 | 1019.8 |
| 20260904120403 | 76 | 86 | 0.0 | 0.0 | 0.00 | 0.00 | 0.00 | 92 | 1019.8 |
| 20260904115839 | 76 | 86 | 0.0 | 0.0 | 0.00 | 0.00 | 0.00 | 91 | 1019.9 |
| 20260904115337 | 76 | 86 | 0.0 | 0.0 | 0.00 | 0.00 | 0.00 | 92 | 1019.9 |
| 20260904114834 | 76 | 86 | 0.0 | 0.0 | 0.00 | 0.00 | 0.00 | 91 | 1019.9 |
| 20260904114332 | 76 | 86 | 0.0 | 0.0 | 0.00 | 0.00 | 0.00 | 91 | 1019.8 |
| 20260904113911 | 76 | 86 | 0.0 | 0.0 | 0.00 | 0.00 | 0.00 | 91 | 1019.8 |
| 20260904113343 | 76 | 86 | 0.0 | 0.0 | 0.00 | 0.00 | 0.00 | 91 | 1019.7 |
| 20260904112841 | 76 | 86 | 0.0 | 0.0 | 0.00 | 0.00 | 0.00 | 91 | 1019.7 |
| 20260904112359 | 76 | 86 | 0.0 | 0.0 | 0.00 | 0.00 | 0.00 | 91 | 1019.7 |
| 20260904111837 | 76 | 86 | 0.0 | 0.0 | 0.00 | 0.00 | 0.00 | 91 | 1019.6 |
| 20260904111356 | 76 | 86 | 0.0 | 0.0 | 0.00 | 0.00 | 0.00 | 90 | 1019.6 |
| 20260904110833 | 76 | 86 | 0.0 | 0.0 | 0.00 | 0.00 | 0.00 | 90 | 1019.6 |
| 20260904110333 | 76 | 86 | 0.0 | 0.0 | 0.00 | 0.00 | 0.00 | 90 | 1019.6 |
| 20260904105903 | 76 | 86 | 0.0 | 0.0 | 0.00 | 0.00 | 0.00 | 90 | 1019.5 |
| 20260904105345 | 76 | 86 | 0.0 | 0.0 | 0.00 | 0.00 | 0.00 | 90 | 1019.4 |
| 20260904104841 | 76 | 86 | 0.0 | 0.0 | 0.00 | 0.00 | 0.00 | 90 | 1019.4 |
| 20260904104341 | 76 | 86 | 0.0 | 0.0 | 0.00 | 0.00 | 0.00 | 90 | 1019.4 |
| 20260904103837 | 76 | 86 | 0.0 | 0.0 | 0.00 | 0.00 | 0.00 | 90 | 1019.3 |
| 20260904103352 | 76 | 86 | 0.0 | 0.0 | 0.00 | 0.00 | 0.00 | 90 | 1019.2 |
| 20260904102847 | 76 | 86 | 0.0 | 0.0 | 0.00 | 0.00 | 0.00 | 90 | 1019.1 |
| 20260904102346 | 76 | 86 | 0.0 | 0.0 | 0.00 | 0.00 | 0.00 | 90 | 1019.1 |
| 20260904101843 | 76 | 86 | 0.0 | 0.0 | 0.00 | 0.00 | 0.00 | 90 | 1019.0 |
| 20260904101343 | 77 | 86 | 0.0 | 0.0 | 0.00 | 0.00 | 0.00 | 90 | 1018.9 |
| 20260904100839 | 77 | 86 | 0.0 | 0.0 | 0.00 | 0.00 | 0.00 | 90 | 1018.8 |
| 20260904100355 | 77 | 86 | 0.0 | 0.0 | 0.00 | 0.00 | 0.00 | 90 | 1018.9 |
| 20260904095851 | 77 | 86 | 0.0 | 0.0 | 0.00 | 0.00 | 0.00 | 90 | 1018.9 |
| 20260904095408 | 77 | 86 | 0.0 | 0.0 | 0.00 | 0.00 | 0.00 | 90 | 1018.9 |
| 20260904094843 | 77 | 86 | 0.0 | 0.0 | 0.00 | 0.00 | 0.00 | 89 | 1018.9 |
| 20260904094342 | 77 | 86 | 0.0 | 0.0 | 0.00 | 0.00 | 0.00 | 89 | 1018.9 |
| 20260904093901 | 77 | 86 | 0.0 | 0.0 | 0.00 | 0.00 | 0.00 | 89 | 1018.7 |
| 20260904093335 | 77 | 86 | 0.0 | 0.0 | 0.00 | 0.00 | 0.00 | 89 | 1018.7 |
| 20260904092832 | 77 | 86 | 0.0 | 0.0 | 0.00 | 0.00 | 0.00 | 89 | 1018.7 |
| 20260904092351 | 77 | 86 | 0.0 | 0.0 | 0.00 | 0.00 | 0.00 | 89 | 1018.6 |
| 20260904091831 | 77 | 86 | 0.0 | 0.0 | 0.00 | 0.00 | 0.00 | 88 | 1018.7 |
| 20260904091331 | 77 | 86 | 0.0 | 0.0 | 0.00 | 0.00 | 0.00 | 88 | 1018.8 |
| 20260904090848 | 77 | 86 | 0.0 | 0.0 | 0.00 | 0.00 | 0.00 | 88 | 1018.7 |
| 20260904090343 | 77 | 86 | 0.0 | 0.0 | 0.00 | 0.00 | 0.00 | 88 | 1018.7 |
| 20260904085839 | 77 | 86 | 0.0 | 0.0 | 0.00 | 0.00 | 0.00 | 88 | 1018.7 |
| 20260904085339 | 77 | 86 | 0.0 | 0.0 | 0.00 | 0.00 | 0.00 | 88 | 1018.7 |
| 20260904084834 | 77 | 86 | 0.0 | 0.0 | 0.00 | 0.00 | 0.00 | 88 | 1018.7 |
| 20260904084333 | 77 | 86 | 0.0 | 0.0 | 0.00 | 0.00 | 0.00 | 88 | 1018.6 |
| 20260904083850 | 77 | 86 | 0.0 | 0.0 | 0.00 | 0.00 | 0.00 | 88 | 1018.7 |
| 20260904083345 | 77 | 86 | 0.0 | 0.0 | 0.00 | 0.00 | 0.00 | 88 | 1018.7 |
| 20260904082843 | 77 | 86 | 0.0 | 0.0 | 0.00 | 0.00 | 0.00 | 88 | 1018.6 |
| 20260904082342 | 78 | 86 | 0.0 | 0.0 | 0.00 | 0.00 | 0.00 | 88 | 1018.6 |
| 20260904081838 | 78 | 86 | 0.0 | 0.0 | 0.00 | 0.00 | 0.00 | 87 | 1018.6 |
| 20260904081335 | 78 | 86 | 0.0 | 0.0 | 0.00 | 0.00 | 0.00 | 87 | 1018.5 |
| 20260904080852 | 78 | 86 | 0.0 | 0.0 | 0.00 | 0.00 | 0.00 | 87 | 1018.6 |
| 20260904080332 | 78 | 86 | 0.0 | 0.0 | 0.00 | 0.00 | 0.00 | 87 | 1018.6 |
| 20260904075830 | 78 | 86 | 0.0 | 0.0 | 0.00 | 0.00 | 0.00 | 87 | 1018.6 |
| 20260904075349 | 78 | 86 | 0.0 | 0.0 | 0.00 | 0.00 | 0.00 | 87 | 1018.5 |
| 20260904074845 | 78 | 86 | 0.0 | 0.0 | 0.00 | 0.00 | 0.00 | 86 | 1018.6 |
| 20260904074344 | 78 | 86 | 0.0 | 0.0 | 0.00 | 0.00 | 0.00 | 86 | 1018.4 |
| 20260904073837 | 78 | 86 | 0.0 | 0.0 | 0.00 | 0.00 | 0.00 | 86 | 1018.5 |
| 20260904073352 | 78 | 86 | 0.0 | 0.0 | 0.00 | 0.00 | 0.00 | 86 | 1018.4 |
| 20260904072830 | 78 | 86 | 0.0 | 0.0 | 0.00 | 0.00 | 0.00 | 85 | 1018.4 |
| 20260904072409 | 78 | 86 | 0.0 | 0.0 | 0.00 | 0.00 | 0.00 | 85 | 1018.3 |
| 20260904071847 | 78 | 86 | 0.0 | 0.0 | 0.00 | 0.00 | 0.00 | 85 | 1018.4 |
| 20260904071347 | 78 | 86 | 0.0 | 0.0 | 0.00 | 0.00 | 0.00 | 85 | 1018.3 |
| 20260904070840 | 78 | 86 | 0.0 | 0.0 | 0.00 | 0.00 | 0.00 | 85 | 1018.4 |
| 20260904070335 | 79 | 86 | 0.0 | 0.0 | 0.00 | 0.00 | 0.00 | 85 | 1018.4 |
| 20260904065834 | 79 | 86 | 0.0 | 0.0 | 0.00 | 0.00 | 0.00 | 85 | 1018.4 |
| 20260904065332 | 79 | 86 | 0.0 | 0.0 | 0.00 | 0.00 | 0.00 | 85 | 1018.4 |
| 20260904064849 | 79 | 86 | 0.0 | 0.0 | 0.00 | 0.00 | 0.00 | 85 | 1018.6 |
| 20260904064348 | 79 | 86 | 0.0 | 0.0 | 0.00 | 0.00 | 0.00 | 85 | 1018.5 |
| 20260904063334 | 79 | 86 | 0.0 | 0.0 | 0.00 | 0.00 | 0.00 | 86 | 1018.6 |
| 20260904062831 | 79 | 86 | 0.0 | 0.0 | 0.00 | 0.00 | 0.00 | 86 | 1018.6 |
| 20260904062410 | 79 | 86 | 0.0 | 0.0 | 0.00 | 0.00 | 0.00 | 84 | 1018.6 |
| 20260904061907 | 79 | 86 | 0.0 | 0.0 | 0.00 | 0.00 | 0.00 | 85 | 1018.5 |
| 20260904061346 | 79 | 86 | 0.0 | 0.0 | 0.00 | 0.00 | 0.00 | 83 | 1018.6 |
| 20260904060842 | 79 | 86 | 0.0 | 0.0 | 0.00 | 0.00 | 0.00 | 84 | 1018.7 |
| 20260904060339 | 79 | 86 | 0.0 | 0.0 | 0.00 | 0.00 | 0.00 | 84 | 1018.8 |
| 20260904055833 | 79 | 86 | 0.0 | 0.0 | 0.00 | 0.00 | 0.00 | 85 | 1018.6 |
| 20260904055333 | 79 | 86 | 0.0 | 0.0 | 0.00 | 0.00 | 0.00 | 85 | 1018.7 |
| 20260904054849 | 79 | 86 | 0.0 | 0.0 | 0.00 | 0.00 | 0.00 | 86 | 1018.7 |
| 20260904054347 | 80 | 86 | 0.0 | 0.0 | 0.00 | 0.00 | 0.00 | 86 | 1018.8 |
| 20260904053844 | 80 | 86 | 0.0 | 0.0 | 0.00 | 0.00 | 0.00 | 85 | 1018.7 |
| 20260904053339 | 80 | 86 | 0.0 | 0.0 | 0.00 | 0.00 | 0.00 | 83 | 1018.9 |
| 20260904052834 | 80 | 86 | 0.0 | 0.0 | 0.00 | 0.00 | 0.00 | 83 | 1018.9 |
| 20260904052334 | 80 | 86 | 0.0 | 0.0 | 0.00 | 0.00 | 0.00 | 83 | 1018.9 |
| 20260904051831 | 80 | 86 | 0.0 | 0.0 | 0.00 | 0.00 | 0.00 | 82 | 1018.9 |
| 20260904051350 | 80 | 86 | 0.0 | 0.0 | 0.00 | 0.00 | 0.00 | 83 | 1018.9 |
| 20260904050847 | 80 | 86 | 0.0 | 0.0 | 0.00 | 0.00 | 0.00 | 82 | 1018.9 |
| 20260904050348 | 80 | 86 | 0.0 | 0.0 | 0.00 | 0.00 | 0.00 | 82 | 1018.9 |
| 20260904045904 | 80 | 86 | 0.0 | 0.0 | 0.00 | 0.00 | 0.00 | 82 | 1018.9 |
| 20260904045340 | 80 | 86 | 0.0 | 0.0 | 0.00 | 0.00 | 0.00 | 82 | 1018.9 |
| 20260904044838 | 81 | 86 | 0.0 | 0.0 | 0.00 | 0.00 | 0.00 | 82 | 1019.0 |
| 20260904044357 | 81 | 86 | 0.0 | 0.0 | 0.00 | 0.00 | 0.00 | 81 | 1019.1 |
| 20260904043834 | 81 | 86 | 0.0 | 0.0 | 0.00 | 0.00 | 0.00 | 81 | 1019.1 |
| 20260904043349 | 81 | 86 | 0.0 | 0.0 | 0.00 | 0.00 | 0.00 | 81 | 1019.2 |
| 20260904042846 | 81 | 86 | 0.0 | 0.0 | 0.00 | 0.00 | 0.00 | 81 | 1019.1 |
| 20260904042346 | 81 | 86 | 0.0 | 0.0 | 0.00 | 0.00 | 0.00 | 80 | 1019.2 |
| 20260904041840 | 81 | 86 | 0.0 | 0.0 | 0.00 | 0.00 | 0.00 | 80 | 1019.1 |
| 20260904041339 | 81 | 86 | 0.0 | 0.0 | 0.00 | 0.00 | 0.00 | 80 | 1019.3 |
| 20260904040836 | 81 | 86 | 0.0 | 0.0 | 0.00 | 0.00 | 0.00 | 82 | 1019.2 |
| 20260904040351 | 81 | 86 | 0.0 | 0.0 | 0.00 | 0.00 | 0.00 | 82 | 1019.1 |
| 20260904035847 | 81 | 86 | 0.0 | 0.0 | 0.00 | 0.00 | 0.00 | 81 | 1019.2 |
| 20260904035347 | 81 | 86 | 0.0 | 0.0 | 0.00 | 0.00 | 0.00 | 82 | 1019.3 |
| 20260904034844 | 81 | 86 | 0.0 | 0.0 | 0.00 | 0.00 | 0.00 | 82 | 1019.4 |
| 20260904034343 | 82 | 86 | 0.0 | 0.0 | 0.00 | 0.00 | 0.00 | 82 | 1019.3 |
| 20260904033840 | 82 | 86 | 0.0 | 0.0 | 0.00 | 0.00 | 0.00 | 82 | 1019.2 |
| 20260904033340 | 82 | 86 | 0.0 | 0.0 | 0.00 | 0.00 | 0.00 | 83 | 1019.3 |
| 20260904032838 | 82 | 86 | 0.0 | 0.0 | 0.00 | 0.00 | 0.00 | 83 | 1019.4 |
| 20260904032338 | 82 | 86 | 0.0 | 0.0 | 0.00 | 0.00 | 0.00 | 82 | 1019.5 |
| 20260904031835 | 82 | 86 | 0.0 | 0.0 | 0.00 | 0.00 | 0.00 | 81 | 1019.6 |
| 20260904031330 | 82 | 86 | 0.0 | 0.0 | 0.00 | 0.00 | 0.00 | 81 | 1019.6 |
| 20260904030906 | 82 | 86 | 0.0 | 0.0 | 0.00 | 0.00 | 0.00 | 80 | 1019.4 |
| 20260904030340 | 82 | 86 | 0.0 | 0.0 | 0.00 | 0.00 | 0.00 | 80 | 1019.5 |
| 20260904025838 | 83 | 86 | 0.0 | 0.0 | 0.00 | 0.00 | 0.00 | 81 | 1019.5 |
| 20260904025338 | 83 | 86 | 0.0 | 0.0 | 0.00 | 0.00 | 0.00 | 82 | 1019.5 |
| 20260904024834 | 83 | 86 | 0.0 | 0.0 | 0.00 | 0.00 | 0.00 | 81 | 1019.6 |
| 20260904024333 | 83 | 86 | 0.0 | 0.0 | 0.00 | 0.00 | 0.00 | 79 | 1019.5 |
| 20260904023847 | 83 | 86 | 0.0 | 0.0 | 0.00 | 0.00 | 0.00 | 79 | 1019.5 |
| 20260904023344 | 83 | 86 | 0.0 | 0.0 | 0.00 | 0.00 | 0.00 | 78 | 1019.4 |
| 20260904022842 | 83 | 86 | 0.0 | 0.0 | 0.00 | 0.00 | 0.00 | 78 | 1019.3 |
| 20260904022341 | 83 | 86 | 0.0 | 0.0 | 0.00 | 0.00 | 0.00 | 79 | 1019.3 |
| 20260904021838 | 83 | 86 | 0.0 | 0.0 | 0.00 | 0.00 | 0.00 | 79 | 1019.3 |
| 20260904021337 | 83 | 86 | 0.0 | 0.0 | 0.00 | 0.00 | 0.00 | 79 | 1019.3 |
| 20260904020837 | 83 | 86 | 0.0 | 0.0 | 0.00 | 0.00 | 0.00 | 79 | 1019.2 |
| 20260904020332 | 83 | 86 | 0.0 | 0.0 | 0.00 | 0.00 | 0.00 | 81 | 1019.1 |
| 20260904015849 | 83 | 86 | 0.0 | 0.0 | 0.00 | 0.00 | 0.00 | 81 | 1018.9 |
| 20260904015348 | 83 | 86 | 0.0 | 0.0 | 0.00 | 0.00 | 0.00 | 81 | 1019.1 |
| 20260904014844 | 84 | 86 | 0.0 | 0.0 | 0.00 | 0.00 | 0.00 | 81 | 1019.0 |
| 20260904014344 | 84 | 86 | 0.0 | 0.0 | 0.00 | 0.00 | 0.00 | 80 | 1019.0 |
| 20260904013841 | 84 | 86 | 0.0 | 0.0 | 0.00 | 0.00 | 0.00 | 79 | 1018.9 |
| 20260904013334 | 84 | 86 | 0.0 | 0.0 | 0.00 | 0.00 | 0.00 | 79 | 1018.9 |
| 20260904012830 | 84 | 86 | 0.0 | 0.0 | 0.00 | 0.00 | 0.00 | 79 | 1018.8 |
| 20260904012409 | 84 | 86 | 0.0 | 0.0 | 0.00 | 0.00 | 0.00 | 79 | 1018.7 |
| 20260904011844 | 85 | 86 | 0.0 | 0.0 | 0.00 | 0.00 | 0.00 | 78 | 1018.7 |
| 20260904011343 | 85 | 86 | 0.0 | 0.0 | 0.00 | 0.00 | 0.00 | 78 | 1018.6 |
| 20260904010901 | 85 | 86 | 0.0 | 0.0 | 0.00 | 0.00 | 0.00 | 77 | 1018.8 |
| 20260904010335 | 85 | 86 | 0.0 | 0.0 | 0.00 | 0.00 | 0.00 | 76 | 1018.5 |
| 20260904005909 | 85 | 86 | 0.0 | 0.0 | 0.00 | 0.00 | 0.00 | 76 | 1018.5 |
| 20260904005407 | 85 | 86 | 0.0 | 0.0 | 0.00 | 0.00 | 0.00 | 76 | 1018.5 |
| 20260904004843 | 86 | 86 | 0.0 | 0.0 | 0.00 | 0.00 | 0.00 | 76 | 1018.4 |
| 20260904004342 | 86 | 86 | 0.0 | 0.0 | 0.00 | 0.00 | 0.00 | 76 | 1018.3 |
| 20260904003900 | 86 | 86 | 0.0 | 0.0 | 0.00 | 0.00 | 0.00 | 75 | 1018.3 |
| 20260904003334 | 86 | 86 | 0.0 | 0.0 | 0.00 | 0.00 | 0.00 | 74 | 1018.3 |
| 20260904002829 | 86 | 86 | 0.0 | 0.0 | 0.00 | 0.00 | 0.00 | 74 | 1018.1 |
| 20260904002332 | 86 | 86 | 0.0 | 1.0 | 0.00 | 0.00 | 0.00 | 74 | 1018.0 |
| 20260904001851 | 87 | 86 | 0.0 | 2.0 | 0.00 | 0.00 | 0.00 | 73 | 1018.0 |
| 20260904001405 | 87 | 86 | 1.0 | 2.0 | 0.00 | 0.00 | 0.00 | 73 | 1017.9 |
| 20260904000844 | 87 | 86 | 1.0 | 2.0 | 0.00 | 0.00 | 0.00 | 73 | 1017.8 |
| 20260904000340 | 87 | 86 | 1.0 | 2.0 | 0.00 | 0.00 | 0.00 | 72 | 1017.7 |
| 20260903235836 | 88 | 86 | 1.0 | 2.0 | 0.00 | 0.00 | 0.00 | 71 | 1017.6 |
| 20260903235334 | 88 | 86 | 1.0 | 2.0 | 0.00 | 0.00 | 0.00 | 71 | 1017.6 |
| 20260903234851 | 88 | 86 | 1.0 | 2.0 | 0.00 | 0.00 | 0.00 | 70 | 1017.7 |
| 20260903234348 | 88 | 86 | 1.0 | 1.0 | 0.00 | 0.00 | 0.00 | 70 | 1017.6 |
| 20260903233846 | 89 | 86 | 1.0 | 1.0 | 0.00 | 0.00 | 0.00 | 69 | 1017.6 |
| 20260903233342 | 89 | 86 | 1.0 | 1.0 | 0.00 | 0.00 | 0.00 | 69 | 1017.6 |
| 20260903232841 | 89 | 86 | 0.0 | 2.0 | 0.00 | 0.00 | 0.00 | 68 | 1017.6 |
| 20260903232340 | 89 | 86 | 1.0 | 2.0 | 0.00 | 0.00 | 0.00 | 67 | 1017.5 |
| 20260903231835 | 90 | 86 | 1.0 | 2.0 | 0.00 | 0.00 | 0.00 | 66 | 1017.5 |
| 20260903231334 | 90 | 86 | 0.0 | 1.0 | 0.00 | 0.00 | 0.00 | 66 | 1017.5 |
| 20260903230850 | 90 | 86 | 0.0 | 1.0 | 0.00 | 0.00 | 0.00 | 66 | 1017.5 |
| 20260903230340 | 91 | 86 | 0.0 | 1.0 | 0.00 | 0.00 | 0.00 | 65 | 1017.5 |
| 20260903225857 | 91 | 86 | 0.0 | 2.0 | 0.00 | 0.00 | 0.00 | 65 | 1017.4 |
| 20260903225335 | 91 | 77 | 0.0 | 2.0 | 0.00 | 0.00 | 0.00 | 64 | 1017.6 |
| 20260903224848 | 92 | 77 | 0.0 | 2.0 | 0.00 | 0.00 | 0.00 | 64 | 1017.6 |
| 20260903224331 | 92 | 128 | 0.0 | 1.0 | 0.00 | 0.00 | 0.00 | 64 | 1017.6 |
| 20260903223849 | 92 | 128 | 0.0 | 1.0 | 0.00 | 0.00 | 0.00 | 63 | 1017.7 |
| 20260903223404 | 92 | 128 | 0.0 | 1.0 | 0.00 | 0.00 | 0.00 | 62 | 1017.7 |
| 20260903222839 | 93 | 128 | 0.0 | 1.0 | 0.00 | 0.00 | 0.00 | 61 | 1017.7 |
| 20260903222339 | 93 | 128 | 0.0 | 1.0 | 0.00 | 0.00 | 0.00 | 61 | 1017.6 |
| 20260903221836 | 93 | 128 | 0.0 | 0.0 | 0.00 | 0.00 | 0.00 | 60 | 1017.7 |
| 20260903221333 | 93 | 128 | 0.0 | 0.0 | 0.00 | 0.00 | 0.00 | 59 | 1017.7 |
| 20260903220851 | 94 | 128 | 0.0 | 0.0 | 0.00 | 0.00 | 0.00 | 58 | 1017.6 |
| 20260903220347 | 94 | 128 | 0.0 | 3.0 | 0.00 | 0.00 | 0.00 | 58 | 1017.6 |
| 20260903215843 | 95 | 128 | 0.0 | 3.0 | 0.00 | 0.00 | 0.00 | 56 | 1017.6 |
| 20260903215402 | 95 | 128 | 0.0 | 5.0 | 0.00 | 0.00 | 0.00 | 56 | 1017.6 |
| 20260903214839 | 95 | 128 | 2.0 | 5.0 | 0.00 | 0.00 | 0.00 | 55 | 1017.6 |
| 20260903214338 | 95 | 167 | 2.0 | 5.0 | 0.00 | 0.00 | 0.00 | 55 | 1017.8 |
| 20260903213853 | 95 | 132 | 3.0 | 4.0 | 0.00 | 0.00 | 0.00 | 55 | 1017.9 |
| 20260903213348 | 95 | 124 | 2.0 | 4.0 | 0.00 | 0.00 | 0.00 | 54 | 1017.7 |
| 20260903212906 | 96 | 71 | 2.0 | 5.0 | 0.00 | 0.00 | 0.00 | 54 | 1017.8 |
| 20260903212403 | 96 | 130 | 2.0 | 5.0 | 0.00 | 0.00 | 0.00 | 53 | 1017.7 |
| 20260903211840 | 96 | 134 | 1.0 | 6.0 | 0.00 | 0.00 | 0.00 | 53 | 1017.9 |
| 20260903211359 | 96 | 91 | 3.0 | 8.0 | 0.00 | 0.00 | 0.00 | 52 | 1017.9 |
| 20260903210834 | 97 | 141 | 2.0 | 7.0 | 0.00 | 0.00 | 0.00 | 51 | 1017.9 |
| 20260903210409 | 97 | 106 | 3.0 | 8.0 | 0.00 | 0.00 | 0.00 | 50 | 1018.1 |